Time,TemperatureF,DewpointF,PressureIn,WindDirection,WindDirectionDegrees,WindSpeedMPH,WindSpeedGustMPH,Humidity,HourlyPrecipIn,Conditions,Clouds,dailyrainin,SoftwareType,DateUTC
2013-09-03 00:23:00,53.0,49.0,30.25,West,270,0.0,0.0,85,-99.99,,,-99.99,,2013-09-03 05:23:00,
2013-09-03 00:52:00,52.0,48.0,30.25,West,270,0.0,0.0,86,-99.99,,,-99.99,,2013-09-03 05:52:00,
2013-09-03 01:12:00,52.0,48.0,30.25,West,270,0.0,0.0,86,-99.99,,,-99.99,,2013-09-03 06:12:00,
2013-09-03 01:22:00,52.0,48.0,30.25,West,270,0.0,0.0,86,-99.99,,,-99.99,,2013-09-03 06:22:00,
2013-09-03 01:52:00,52.0,48.0,30.26,NNW,337,0.0,0.0,86,-99.99,,,-99.99,,2013-09-03 06:52:00,
2013-09-03 02:02:00,52.0,48.0,30.26,NNW,337,0.0,0.0,86,-99.99,,,-99.99,,2013-09-03 07:02:00,
2013-09-03 02:22:00,51.0,47.0,30.26,ENE,67,0.0,0.0,87,-99.99,,,-99.99,,2013-09-03 07:22:00,
2013-09-03 02:52:00,50.0,46.0,30.27,ENE,67,0.0,0.0,87,-99.99,,,-99.99,,2013-09-03 07:52:00,
2013-09-03 03:22:00,49.0,45.0,30.27,ENE,67,0.0,0.0,87,-99.99,,,-99.99,,2013-09-03 08:22:00,
2013-09-03 03:52:00,49.0,45.0,30.28,ENE,67,0.0,0.0,87,-99.99,,,-99.99,,2013-09-03 08:52:00,
2013-09-03 04:21:00,49.0,46.0,30.28,ENE,67,0.0,0.0,88,-99.99,,,-99.99,,2013-09-03 09:21:00,
2013-09-03 04:53:00,48.0,45.0,30.27,ENE,67,0.0,0.0,88,-99.99,,,-99.99,,2013-09-03 09:53:00,
2013-09-03 05:23:00,47.0,44.0,30.28,NE,45,0.0,0.0,88,-99.99,,,-99.99,,2013-09-03 10:23:00,
2013-09-03 05:53:00,47.0,44.0,30.28,South,180,0.0,0.0,88,-99.99,,,-99.99,,2013-09-03 10:53:00,
2013-09-03 06:23:00,47.0,44.0,30.29,South,180,0.0,0.0,88,-99.99,,,-99.99,,2013-09-03 11:23:00,
2013-09-03 06:52:00,48.0,45.0,30.29,South,180,0.0,0.0,89,-99.99,,,-99.99,,2013-09-03 11:52:00,
2013-09-03 07:21:00,49.0,46.0,30.30,SSE,157,0.0,0.0,90,-99.99,,,-99.99,,2013-09-03 12:21:00,
2013-09-03 07:52:00,50.0,47.0,30.31,SSE,157,0.0,0.0,90,-99.99,,,-99.99,,2013-09-03 12:52:00,
2013-09-03 08:21:00,51.0,48.0,30.31,SSE,157,0.0,0.0,90,-99.99,,,-99.99,,2013-09-03 13:21:00,
2013-09-03 08:52:00,53.0,50.0,30.32,SSE,157,0.0,0.0,90,-99.99,,,-99.99,,2013-09-03 13:52:00,
2013-09-03 09:21:00,55.0,52.0,30.32,SSW,202,0.0,0.0,89,-99.99,,,-99.99,,2013-09-03 14:21:00,
2013-09-03 09:52:00,56.0,52.0,30.33,South,180,0.0,0.0,88,-99.99,,,-99.99,,2013-09-03 14:52:00,
2013-09-03 10:22:00,59.0,53.0,30.33,SSE,157,0.0,0.0,81,-99.99,,,-99.99,,2013-09-03 15:22:00,
2013-09-03 10:54:00,60.0,53.0,30.33,South,180,0.0,0.0,79,-99.99,,,-99.99,,2013-09-03 15:54:00,
2013-09-03 11:24:00,64.0,55.0,30.32,SSW,202,5.0,5.0,73,-99.99,,,-99.99,,2013-09-03 16:24:00,
2013-09-03 11:54:00,68.0,57.0,30.31,SW,225,4.0,4.0,68,-99.99,,,-99.99,,2013-09-03 16:54:00,
2013-09-03 12:23:00,70.0,56.0,30.31,NNW,337,1.0,6.0,61,-99.99,,,-99.99,,2013-09-03 17:23:00,
2013-09-03 12:52:00,71.0,55.0,30.29,NNW,337,0.0,7.0,58,-99.99,,,-99.99,,2013-09-03 17:52:00,
2013-09-03 13:02:00,71.0,55.0,30.29,NNW,337,0.0,7.0,58,-99.99,,,-99.99,,2013-09-03 18:02:00,
2013-09-03 13:22:00,75.0,56.0,30.28,ENE,67,0.0,6.0,52,-99.99,,,-99.99,,2013-09-03 18:22:00,
2013-09-03 13:52:00,75.0,56.0,30.28,NNW,337,0.0,4.0,52,-99.99,,,-99.99,,2013-09-03 18:52:00,
2013-09-03 14:22:00,76.0,57.0,30.27,NW,315,0.0,0.0,52,-99.99,,,-99.99,,2013-09-03 19:22:00,
2013-09-03 14:52:00,79.0,58.0,30.25,SW,225,0.0,3.0,49,-99.99,,,-99.99,,2013-09-03 19:52:00,
2013-09-03 15:22:00,78.0,56.0,30.25,SW,225,9.0,9.0,46,-99.99,,,-99.99,,2013-09-03 20:22:00,
2013-09-03 15:52:00,76.0,55.0,30.24,SSW,202,0.0,0.0,48,-99.99,,,-99.99,,2013-09-03 20:52:00,
2013-09-03 16:22:00,77.0,55.0,30.24,SW,225,0.0,6.0,46,-99.99,,,-99.99,,2013-09-03 21:22:00,
2013-09-03 16:54:00,77.0,54.0,30.23,SW,225,6.0,6.0,45,-99.99,,,-99.99,,2013-09-03 21:54:00,
2013-09-03 17:23:00,77.0,53.0,30.23,SW,225,0.0,1.0,44,-99.99,,,-99.99,,2013-09-03 22:23:00,
2013-09-03 17:52:00,82.0,57.0,30.23,SW,225,2.0,2.0,42,-99.99,,,-99.99,,2013-09-03 22:52:00,
2013-09-03 19:52:00,71.0,54.0,30.23,SW,225,0.0,0.0,55,-99.99,,,-99.99,,2013-09-04 00:52:00,
2013-09-03 20:22:00,68.0,53.0,30.23,SW,225,0.0,0.0,58,-99.99,,,-99.99,,2013-09-04 01:22:00,
2013-09-03 20:52:00,66.0,52.0,30.22,SSW,202,0.0,0.0,61,-99.99,,,-99.99,,2013-09-04 01:52:00,
2013-09-03 21:22:00,63.0,53.0,30.24,ENE,67,0.0,0.0,69,-99.99,,,-99.99,,2013-09-04 02:22:00,
2013-09-03 21:52:00,62.0,53.0,30.24,ENE,67,0.0,0.0,73,-99.99,,,-99.99,,2013-09-04 02:52:00,
2013-09-03 22:22:00,60.0,52.0,30.24,ENE,67,0.0,0.0,74,-99.99,,,-99.99,,2013-09-04 03:22:00,
2013-09-03 22:54:00,59.0,52.0,30.24,SSE,157,0.0,0.0,77,-99.99,,,-99.99,,2013-09-04 03:54:00,
2013-09-03 23:14:00,59.0,52.0,30.24,ESE,112,0.0,0.0,78,-99.99,,,-99.99,,2013-09-04 04:14:00,
2013-09-03 23:54:00,58.0,52.0,30.24,SE,135,0.0,0.0,80,-99.99,,,-99.99,,2013-09-04 04:54:00,